This demonstration page uses our WeatherBlox Daily Observations layout. Learn more.

Left ArrowRight Arrow

38.20091, -84.87328

Hourly Observations for October 15, 2021

Temp ( °F °C ) Dew Point ( °F °C ) Humidity (%) Winds ( mph kmh ) Pressure ( in mb ) Visibility ( mi km ) Precip ( " mm )
12:53 am 00:53 Mostly Clear 72 22.2 67 19.4 84 84 S 3 6 29.90 1013 10 16 N/A
1:53 am 01:53 Mostly Clear 71 21.7 67 19.4 87 87 S 6 9 29.89 1012 10 16 N/A
2:53 am 02:53 Clear 70 21.1 66 18.9 87 87 SSW 3 6 29.89 1012 10 16 N/A
3:53 am 03:53 Clear 70 21.1 66 18.9 87 87 N N/A 29.88 1012 10 16 N/A
4:53 am 04:53 Clear 70 21.1 65 18.3 84 84 S 3 6 29.88 1012 10 16 N/A
5:53 am 05:53 Clear 68 20 64 17.8 87 87 S 5 7 29.88 1012 10 16 N/A
6:53 am 06:53 Clear 67 19.4 64 17.8 91 91 S 5 7 29.89 1012 10 16 N/A
7:53 am 07:53 Sunny 68 20 64 17.8 87 87 S 6 9 29.88 1012 10 16 N/A
8:53 am 08:53 Partly Cloudy 69 20.6 65 18.3 87 87 S 7 11 29.89 1012 10 16 N/A
9:53 am 09:53 Cloudy 71 21.7 65 18.3 81 81 S 8 13 29.89 1012 10 16 N/A
10:27 am 10:27 Cloudy 72 22.2 65 18.3 79 79 S 9 15 29.89 1012 10 16 N/A
10:53 am 10:53 Cloudy with Light Rain 71 21.7 66 18.9 84 84 SSW 9 15 29.90 1012 6 10 0.01 0.25
11:53 am 11:53 Cloudy with Light Rain 71 21.7 68 20 90 90 S 13 20 29.90 1013 8 13 0.03 0.76
12:08 pm 12:08 Cloudy 71 21.7 68 20 90 90 SSW 12 19 29.90 1012 10 16 0.00 0.00
12:44 pm 12:44 Cloudy with Rain 70 21.1 68 20 93 93 SSW 10 17 29.91 1013 4 6 0.04 1.02
12:53 pm 12:53 Cloudy with Light Rain 70 21.1 68 20 93 93 SSW 12 19 29.90 1013 7 11 0.05 1.27
1:53 pm 13:53 Cloudy with Light Rain 70 21.1 68 20 93 93 SSW 7 11 29.87 1011 5 8 0.04 1.02
2:45 pm 14:45 Cloudy 71 21.7 69 20.6 94 94 S 9 15 29.84 1010 10 16 0.01 0.25
2:53 pm 14:53 Cloudy 71 21.7 69 20.6 94 94 S 8 13 29.84 1011 10 16 0.01 0.25
3:03 pm 15:03 Cloudy 71 21.7 69 20.6 94 94 S 12 19 29.84 1010 10 16 N/A
3:12 pm 15:12 Cloudy 71 21.7 68 20 90 90 SSW 12 19 29.84 1010 10 16 N/A
3:51 pm 15:51 Cloudy with Light Rain 72 22 70 21 94 94 SSW 8 13 29.84 1010 3 4 0.02 0.51
3:53 pm 15:53 Cloudy with Light Rain 71 21.7 69 20.6 94 94 SSW 8 13 29.83 1010 3 5 0.02 0.51
4:16 pm 16:16 Cloudy 71 21.7 69 20.6 94 94 SW 9 15 29.84 1010 9 14 0.00 0.00
4:53 pm 16:53 Cloudy with Light Rain 71 21.7 69 20.6 94 94 SW 9 15 29.83 1010 5 8 0.00 0.00
5:26 pm 17:26 Cloudy with Light Rain 71 21.7 70 21.1 96 96 SW 7 11 29.82 1010 6 10 0.01 0.25
5:33 pm 17:33 Cloudy 71 21.7 69 20.6 94 94 SW 9 15 29.82 1010 10 16 0.01 0.25
5:53 pm 17:53 Cloudy 71 21.7 69 20.6 94 94 SW 10 17 29.82 1010 10 16 0.01 0.25
6:00 pm 18:00 Cloudy 71 21.7 69 20.6 94 94 SW 6 9 29.82 1010 10 16 N/A
6:53 pm 18:53 Partly Cloudy 70 21.1 68 20 93 93 SW 6 9 29.83 1010 10 16 N/A
7:53 pm 19:53 Clear 69 20.6 67 19.4 93 93 N N/A 29.82 1010 8 13 N/A
8:29 pm 20:29 Mostly Cloudy 69 20.6 68 20 96 96 SE 3 6 29.81 1009 9 14 N/A
8:36 pm 20:36 Mostly Cloudy 69 20.6 68 20 96 96 N N/A 29.81 1009 8 13 N/A
8:53 pm 20:53 Mostly Cloudy 69 20.6 68 20 96 96 N N/A 29.81 1010 7 11 N/A
9:53 pm 21:53 Mostly Cloudy 69 20.6 68 20 96 96 SSE 7 11 29.78 1008 7 11 N/A
10:53 pm 22:53 Clear 70 21.1 67 19.4 90 90 S 9 15 29.76 1008 10 16 N/A
11:53 pm 23:53 Mostly Cloudy 70 21.1 67 19.4 90 90 SW 8 13 29.78 1008 10 16 N/A

Powered by AerisWeather